Miscellaneous Local Product
Issued by NWS North Platte, NE

Home | Current Version | Previous Version | Graphics & Text | Print | Product List | Glossary On
Versions: 1 2 3 4 5 6 7 8 9 10 11 12 13 14 15 16 17 18 19 20 21 22 23 24 25 26 27 28 29 30 31 32 33 34 35 36 37 38 39 40 41 42 43 44 45 46 47 48 49 50
480
AXUS43 KLBF 170610
MISLBF


WESTERN AND NORTH CENTRAL NEBRASKA HOURLY WEATHER ROUNDUP
NATIONAL WEATHER SERVICE NORTH PLATTE NE
1200 AM CST FRI NOV 17 2017

NOTE: "FAIR" INDICATES FEW OR NO CLOUDS BELOW 12,000 FEET WITH NO
SIGNIFICANT WEATHER AND/OR OBSTRUCTIONS TO VISIBILITY.

NOTE: STATIONS NOT REPORTING VARIABLES SUCH AS SKY/WEATHER OR
PRESSURE ARE PROVIDED BY RAWS AND APRS NETWORKS AND ARE NOT UNDER
NATIONAL WEATHER SERVICE QUALITY CONTROL.

...OBSERVATIONS IN AND NEAR THE EASTERN PANHANDLE OF NEBRASKA...

CITY           SKY/WX    TMP DP  RH WIND       PRES   REMARKS
PINE RIDGE     CLEAR     40  28  62 CALM      29.60R
GORDON         FAIR      47  29  50 W7        29.61F
CHADRON        CLEAR     42  27  55 SW6       29.59S
ALLIANCE       CLOUDY    38  28  67 CALM      29.65S
SIDNEY         CLOUDY    42  27  55 W7        29.69F
CRESCENT LAKE    N/A     43  30  59 CALM        N/A
$$

...OBSERVATIONS IN NORTHERN NEBRASKA AND FAR SOUTHERN SOUTH DAKOTA...

CITY           SKY/WX    TMP DP  RH WIND       PRES   REMARKS
WINNER         FAIR      54  36  50 SW22G31   29.52F
VALENTINE      CLEAR     49  34  56 SW5       29.59F
THEDFORD       CLEAR     50  37  60 SW7       29.65S
AINSWORTH      CLEAR     48  37  64 S17       29.59F
O`NEILL        CLEAR     46  36  67 S13G20    29.64F
ORD            CLEAR     45  35  68 S10       29.67F
BROKEN BOW     CLEAR     47  36  65 S14       29.66F
VALENTINE NWR    N/A     48  34  59 SW12G20     N/A
HALSEY           N/A     49  35  59 S9G20       N/A
BUTTE            N/A     49  37  63 S14G24      N/A
CHAMBERS         N/A     45  34  66 MISG        N/A
EWING            N/A     46  35  66 S12G20      N/A
$$

...OBSERVATIONS IN SOUTHWEST NEBRASKA AND FAR NORTHEAST COLORADO...

CITY           SKY/WX    TMP DP  RH WIND       PRES   REMARKS
HOLYOKE        FAIR      39  30  70 W8        29.67S WCI  34
OGALLALA       CLOUDY    37  30  75 CALM      29.65F
NORTH PLATTE   CLOUDY    46  36  68 NE7       29.67F
MCCOOK         CLOUDY    48  38  68 S6        29.68S
LEXINGTON      CLOUDY    46  38  72 SE7       29.69S
STAPLETON        N/A     40  34  80 CALM        N/A
GOTHENBURG       N/A     47  36  66 SE6         N/A
CALLAWAY         N/A     44  38  79 S16         N/A
$$

...OBSERVATIONS IN CENTRAL LINCOLN COUNTY AREA...

CITY           SKY/WX    TMP DP  RH WIND       PRES   REMARKS
N.P. AIRPORT   CLOUDY    46  36  68 NE7       29.67F
N.P. DOWNTOWN    N/A     48  37  67 CALM        N/A
N.P. SOUTHEAST   N/A     46  36  68 CALM        N/A
N.P. HILLCREST   N/A     55  35  47 S7          N/A
$$

...SOME OBSERVATIONS FROM AROUND THE REGION...

CITY           SKY/WX    TMP DP  RH WIND       PRES   REMARKS
DENVER         CLOUDY    53  26  35 S9        29.75F
LIMON          CLOUDY    57  29  34 W14       29.79F
ASPEN          CLOUDY    53  22  29 S17G28    29.94F
LARAMIE        CLOUDY    45  28  51 SW24      29.76F
CASPER         CLOUDY    51  30  44 SW17      29.63F
CHEYENNE       CLOUDY    48  27  44 SW10      29.71F
SCOTTSBLUFF    CLOUDY    43  27  53 CALM      29.64F
GRAND ISLAND   CLOUDY    47  38  71 S16G24    29.72F
OMAHA          PTCLDY    40  28  62 SE16      29.85F WCI  31
SIOUX FALLS    CLOUDY    41  29  62 S15       29.73F
PIERRE         CLOUDY    53  32  44 SW7       29.45F
RAPID CITY     PTCLDY    46  29  51 N29G40    29.61R
BISMARCK       CLOUDY    30  27  88 CALM      29.59S
KANSAS CITY    CLOUDY    47  32  56 SE13      29.93F
HILL CITY      CLOUDY    50  45  83 S8        29.73F
WICHITA        CLOUDY    58  56  93 S16       29.87F
DODGE CITY     CLEAR     49  46  90 S22       29.78F
OKLAHOMA CITY  CLOUDY    58  55  90 S16       29.94S FOG
DALLAS         MOCLDY    70  65  84 S8        29.96F
AMARILLO       CLOUDY    60  39  45 SW17      29.90F
$$




USA.gov is the U.S. government's official web portal to all federal, state and local government web resources and services.